FW1358 Weather Reports


Display with metric or nautical units.
time (UTC)temp
F
wind
direction
speed
MPH
gust
MPH
rain 1hr
in
rain 24hr
in
rain mn
in
humidity
%
barometer
mb
20260503195304 70 303 0.0 5.0 0.00 0.04 0.00 36 1019.5
20260503194803 70 212 2.0 3.0 0.00 0.04 0.00 36 1019.5
20260503194303 70 301 0.0 3.0 0.00 0.04 0.00 34 1019.6
20260503193803 71 352 0.0 0.0 0.00 0.04 0.00 35 1019.7
20260503193304 70 352 0.0 1.0 0.00 0.04 0.00 38 1019.7
20260503192803 70 352 0.0 1.0 0.00 0.04 0.00 35 1019.8
20260503192305 70 0 0.0 0.0 0.00 0.04 0.00 36 1019.7
20260503191804 70 0 0.0 0.0 0.00 0.04 0.00 36 1019.9
20260503191303 70 0 0.0 2.0 0.00 0.04 0.00 33 1020.0
20260503190803 70 0 0.0 2.0 0.00 0.04 0.00 36 1020.1
20260503190303 70 295 0.0 1.0 0.00 0.04 0.00 36 1020.1
20260503184803 70 221 0.0 0.0 0.00 0.04 0.00 36 1020.3
20260503184304 69 221 0.0 0.0 0.00 0.04 0.00 33 1020.4
20260503183303 69 221 0.0 1.0 0.00 0.04 0.00 36 1020.6
20260503182804 69 221 0.0 1.0 0.00 0.04 0.00 35 1020.6
20260503180303 67 269 0.0 0.0 0.00 0.04 0.00 37 1020.9
20260503173803 66 269 0.0 0.0 0.00 0.04 0.00 38 1021.3
20260503172803 65 269 0.0 0.0 0.00 0.04 0.00 38 1021.6
20260503171303 64 269 0.0 0.0 0.00 0.04 0.00 38 1021.7
20260503170803 64 269 0.0 0.0 0.00 0.04 0.00 42 1021.9
20260503150803 53 269 0.0 0.0 0.00 0.04 0.00 80 1022.7
20260503150303 52 269 0.0 0.0 0.00 0.04 0.00 80 1022.6
20260503140303 46 269 0.0 0.0 0.00 0.04 0.00 94 1022.6
20260503130803 43 150 0.0 0.0 0.00 0.04 0.00 94 1022.5
20260503130303 42 150 0.0 0.0 0.00 0.04 0.00 94 1022.5
20260503110803 38 224 0.0 0.0 0.00 0.04 0.00 90 1021.3
20260503110303 39 224 0.0 0.0 0.00 0.04 0.00 89 1021.3
20260503080803 42 224 0.0 0.0 0.00 0.04 0.00 87 1020.5
20260503072803 44 224 0.0 0.0 0.00 0.04 0.00 88 1020.4
20260503071303 44 224 0.0 0.0 0.00 0.04 0.00 89 1020.3
20260503070303 45 224 0.0 0.0 0.00 0.04 0.00 89 1020.3
20260503060303 45 224 0.0 0.0 0.00 0.04 0.00 88 1020.4
20260503054303 46 224 0.0 0.0 0.00 0.04 0.00 87 1020.5
20260503053803 46 224 0.0 0.0 0.00 0.04 0.00 87 1020.4
20260503053303 46 224 0.0 0.0 0.00 0.04 0.00 87 1020.5
20260503052803 46 224 0.0 0.0 0.00 0.04 0.00 87 1020.4
20260503052305 46 224 0.0 0.0 0.00 0.04 0.00 87 1020.4
20260503051303 46 224 0.0 0.0 0.00 0.04 0.00 87 1020.3
20260503050303 46 224 0.0 0.0 0.00 0.04 0.00 87 1020.1
20260503045305 46 224 0.0 0.0 0.00 0.04 0.04 87 1020.0
20260503044803 46 224 0.0 0.0 0.00 0.04 0.04 87 1020.0
20260503044304 46 224 0.0 0.0 0.00 0.04 0.04 87 1020.0
20260503043803 46 224 0.0 0.0 0.00 0.04 0.04 87 1020.0
20260503043303 46 224 0.0 0.0 0.00 0.04 0.04 88 1020.0
20260503041803 47 224 0.0 0.0 0.00 0.04 0.04 87 1020.0
20260503041303 47 224 0.0 0.0 0.00 0.04 0.04 87 1019.9
20260503040803 47 224 0.0 0.0 0.00 0.04 0.04 87 1019.8
20260503035304 47 224 0.0 0.0 0.00 0.04 0.04 86 1019.7
20260503034803 47 224 0.0 0.0 0.00 0.04 0.04 86 1019.7
20260503034304 47 224 0.0 0.0 0.00 0.04 0.04 86 1019.7
20260503033803 47 224 0.0 0.0 0.00 0.04 0.04 86 1019.7
20260503033303 47 224 0.0 0.0 0.00 0.04 0.04 86 1019.7
20260503030803 48 224 0.0 0.0 0.00 0.04 0.04 86 1019.8
20260503024304 49 224 0.0 0.0 0.00 0.04 0.04 86 1019.6
20260503023803 49 224 0.0 0.0 0.00 0.04 0.04 86 1019.5
20260503023303 49 224 0.0 0.0 0.00 0.04 0.04 86 1019.4
20260503022803 49 224 0.0 0.0 0.00 0.04 0.04 86 1019.4
20260503022305 49 224 0.0 0.0 0.00 0.04 0.04 86 1019.4
20260503021303 49 224 0.0 0.0 0.00 0.04 0.04 86 1019.5
20260503020304 49 224 0.0 0.0 0.00 0.04 0.04 86 1019.3
20260503015804 50 224 0.0 0.0 0.00 0.04 0.04 86 1019.1
20260503013303 51 224 0.0 0.0 0.00 0.04 0.04 83 1019.0
20260503012305 51 224 0.0 0.0 0.00 0.04 0.04 84 1018.8
20260503011803 51 224 0.0 0.0 0.00 0.04 0.04 84 1018.8
20260503011303 51 224 0.0 0.0 0.00 0.04 0.04 84 1018.7
20260503010803 52 224 0.0 0.0 0.00 0.04 0.04 83 1018.5
20260503005803 52 224 0.0 0.0 0.00 0.04 0.04 83 1018.3
20260503005304 52 224 0.0 0.0 0.00 0.04 0.04 84 1018.3
20260503004303 52 224 0.0 0.0 0.00 0.04 0.04 84 1018.1
20260503003803 52 224 0.0 0.0 0.00 0.04 0.04 84 1018.1
20260503003304 52 224 0.0 0.0 0.00 0.04 0.04 84 1018.2
20260503002804 52 224 0.0 0.0 0.00 0.04 0.04 84 1018.2
20260503002305 52 224 0.0 0.0 0.00 0.04 0.04 84 1018.1
20260503001803 52 224 0.0 0.0 0.00 0.04 0.04 84 1018.0
20260503001304 52 224 0.0 0.0 0.01 0.04 0.04 84 1018.0
20260502235305 53 224 0.0 0.0 0.01 0.04 0.04 82 1017.6
20260502233803 53 224 0.0 0.0 0.01 0.04 0.04 81 1017.6
20260502233304 54 224 0.0 0.0 0.01 0.04 0.04 79 1017.7
20260502231803 55 224 0.0 1.0 0.01 0.04 0.04 75 1017.5
20260502230803 56 51 0.0 3.0 0.00 0.03 0.03 72 1017.4
20260502224803 57 50 0.0 0.0 0.01 0.03 0.03 74 1016.6
20260502224303 57 50 0.0 0.0 0.02 0.03 0.03 74 1016.5
20260502223303 57 50 0.0 0.0 0.03 0.03 0.03 70 1016.4
20260502222305 57 50 0.0 0.0 0.03 0.03 0.03 72 1016.3
20260502220803 58 50 0.0 0.0 0.03 0.03 0.03 71 1016.4
20260502220303 58 50 0.0 0.0 0.03 0.03 0.03 72 1016.3
20260502214303 63 188 0.0 0.0 0.01 0.01 0.01 49 1016.2
20260502212803 65 188 0.0 0.0 0.00 0.00 0.00 41 1015.5
20260502211804 65 188 0.0 0.0 0.00 0.00 0.00 41 1015.4
20260502210803 66 188 0.0 0.0 0.00 0.00 0.00 40 1015.5
20260502210303 66 188 0.0 0.0 0.00 0.00 0.00 36 1015.5
20260502205803 66 188 0.0 0.0 0.00 0.00 0.00 37 1015.5
20260502204303 66 188 0.0 0.0 0.00 0.00 0.00 42 1015.6
20260502203303 66 188 0.0 0.0 0.00 0.00 0.00 38 1015.8
20260502202803 66 188 0.0 0.0 0.00 0.00 0.00 35 1015.9
20260502201303 67 188 0.0 0.0 0.00 0.00 0.00 40 1016.0
20260502200803 67 188 0.0 0.0 0.00 0.00 0.00 38 1016.0
20260502200303 67 188 0.0 0.0 0.00 0.00 0.00 40 1016.1